GFSWCAN_sfc_dewp_111.txt.gz
Dewpoint
39 39 41 43 43 41 42 41 40 39 38 39 38 38 39 41 42 44 43 42 40 36 31 32 31 29 27 28 29 31 28 33 31 28 27 26 26 25 23 24 26 26 26 29 27 24 22 33 33 32 35 37 35 35
39 39 39 41 42 42 41 40 40 40 39 39 38 37 38 40 41 43 41 43 44 37 37 40 38 36 34 31 32 30 30 29 29 31 31 27 28 31 26 24 29 28 30 29 33 31 34 34 34 33 34 33 32 32
37 38 40 40 40 42 41 41 40 39 38 38 38 37 37 38 41 42 43 42 39 35 36 35 33 35 36 36 37 31 31 29 32 37 33 31 27 33 27 28 29 32 32 31 30 31 32 34 34 33 31 30 29 30
35 36 37 39 40 40 40 40 40 39 38 38 39 37 37 38 41 42 43 42 40 37 34 28 33 33 34 35 36 37 34 35 36 38 33 30 27 27 27 29 29 32 32 33 33 33 32 32 34 35 32 30 28 28
33 34 35 37 39 40 40 40 39 39 38 37 38 37 37 38 41 43 46 44 43 39 35 31 33 31 33 33 34 35 35 33 32 34 34 29 27 32 31 34 32 30 31 31 30 32 34 32 34 34 31 28 26 26
33 33 35 35 37 38 40 40 40 39 39 38 37 36 36 39 41 42 36 44 43 43 36 29 31 30 33 34 33 33 33 35 34 32 33 32 31 35 32 31 29 30 31 33 32 34 33 33 33 32 30 29 27 23
32 33 33 35 36 37 38 40 40 38 38 37 37 36 36 39 43 39 37 41 43 43 36 31 27 30 31 33 35 35 35 34 32 31 30 30 31 37 34 29 29 29 30 33 35 35 31 32 30 30 29 28 29 25
33 32 33 33 35 36 37 39 40 39 37 37 36 36 37 39 41 40 43 44 44 38 38 30 29 30 35 33 32 35 34 35 34 32 33 33 34 34 31 28 26 28 28 31 32 31 30 30 30 29 29 25 22 20
34 34 34 33 33 35 37 39 39 37 36 36 36 37 40 39 37 39 44 44 44 39 33 31 29 31 35 35 37 36 35 32 33 32 31 32 30 31 29 26 24 24 25 25 29 28 27 27 27 26 24 21 20 20
35 34 34 34 34 35 37 39 38 36 34 35 38 36 32 37 42 43 38 34 35 37 37 31 29 31 33 37 35 35 35 33 28 31 31 32 30 27 25 24 23 22 20 22 26 23 22 25 24 20 17 17 17 18
34 34 34 32 33 37 38 38 37 35 36 38 34 34 41 43 40 36 33 33 33 31 32 31 30 31 34 34 34 37 34 31 26 28 29 28 26 24 24 23 22 20 19 19 19 18 18 18 19 18 16 16 16 15
33 32 32 32 33 35 38 38 37 36 38 38 39 40 40 37 35 32 30 29 27 24 32 30 30 32 37 38 35 35 31 33 25 33 30 25 22 22 20 19 18 19 18 17 17 18 18 17 17 16 15 14 14 14
34 33 32 32 34 36 38 38 37 36 38 38 35 32 33 34 30 28 26 25 27 31 34 34 33 34 36 35 35 34 30 30 35 31 28 22 21 19 18 17 15 15 15 15 15 15 15 15 16 15 15 16 16 15
33 32 32 32 35 37 38 37 37 38 37 33 31 28 31 29 30 30 28 31 35 37 35 35 35 33 35 33 34 29 33 33 29 26 23 22 22 20 17 16 15 15 16 15 15 15 14 14 14 14 15 15 15 14
33 33 33 34 37 37 37 37 38 37 35 31 31 29 28 31 32 33 35 35 34 37 37 35 34 32 33 32 31 31 28 27 24 23 22 23 22 19 19 17 15 15 15 15 15 14 14 14 14 14 15 15 14 13
33 33 35 37 37 36 38 39 37 36 32 28 26 26 28 29 29 32 33 31 33 37 38 36 33 31 30 31 28 26 25 24 22 22 21 20 20 19 18 17 16 16 16 16 16 15 14 14 14 14 14 14 13 13
35 35 36 37 38 39 38 35 34 29 28 25 25 28 30 33 32 31 33 32 34 35 33 31 29 27 27 25 23 24 24 23 22 22 23 21 19 18 17 16 16 16 16 16 16 15 15 15 15 14 14 15 14 14
36 37 39 38 38 36 36 34 29 26 21 24 25 26 27 30 30 30 31 33 34 31 29 26 26 24 26 23 23 22 22 23 22 21 20 20 19 19 19 18 17 17 17 16 16 16 15 16 16 14 15 14 13 13
39 40 40 40 36 33 30 29 25 21 23 23 25 27 27 27 28 29 31 31 29 27 27 27 27 26 25 25 24 23 22 21 20 20 20 20 19 18 18 18 17 18 17 17 19 17 16 17 16 15 13 13 13 12
40 39 40 37 36 26 23 24 25 21 22 24 25 25 25 26 27 30 29 26 24 26 26 25 24 24 25 25 25 24 24 22 19 18 18 19 19 19 19 19 19 19 18 17 17 15 16 16 15 15 14 13 16 13
36 36 36 36 29 26 24 22 21 21 22 22 22 22 23 24 27 28 26 22 28 24 23 23 22 24 26 26 24 23 22 21 20 19 18 18 20 20 19 20 19 20 19 19 21 17 17 17 15 15 20 19 17 16
30 33 30 30 26 25 24 24 22 22 22 22 22 22 24 25 25 25 20 24 22 21 23 22 21 22 22 22 23 24 25 23 23 20 20 19 19 19 19 20 19 20 20 21 18 20 18 14 16 17 18 16 13 14
32 32 30 27 28 26 24 29 24 21 21 22 20 20 22 23 20 15 21 18 19 21 22 21 24 24 22 23 21 22 22 20 19 19 20 21 21 21 20 19 20 20 19 16 15 17 18 12 14 17 15 15 15 13
28 28 29 29 26 24 28 24 21 20 20 20 18 15 17 20 15 19 19 20 20 19 19 21 20 19 19 18 18 19 20 19 19 19 19 17 16 17 16 16 17 17 15 14 15 16 15 17 13 13 15 14 14 13
25 22 27 23 26 24 22 22 21 19 19 19 17 16 17 17 18 18 18 19 19 20 20 19 19 18 19 20 19 19 19 17 16 17 18 16 17 15 14 13 14 13 16 18 17 17 16 15 15 14 12 13 8 6
19 21 21 22 24 22 22 20 20 20 19 18 18 18 20 19 15 15 15 21 22 21 23 23 21 19 17 17 17 16 16 16 15 14 14 14 15 18 17 14 14 15 15 18 18 15 14 12 12 6 10 7 8 10
19 19 19 16 19 19 22 22 20 22 18 17 19 18 17 12 13 16 20 21 20 23 22 22 20 18 16 16 16 16 16 15 17 15 15 13 13 14 17 17 13 16 14 15 16 14 13 12 11 10 10 12 11 9
17 18 17 19 19 19 17 19 18 16 19 18 18 15 14 13 15 18 20 22 25 22 21 21 19 17 17 17 19 19 18 16 15 15 13 13 13 15 15 15 13 11 13 13 15 14 13 13 11 10 8 9 10 10
18 18 16 9 13 15 15 15 17 15 14 19 20 15 13 13 17 18 20 23 25 23 20 20 21 23 20 20 20 19 19 17 13 10 9 12 13 13 13 13 12 13 14 12 10 11 7 11 11 11 4 11 11 10
16 18 14 10 10 12 15 15 17 17 14 16 14 11 12 15 16 19 24 24 22 22 22 21 21 20 19 18 18 17 19 19 17 14 12 12 13 15 13 12 12 12 14 13 11 9 7 10 9 10 9 9 9 8
16 20 15 15 13 16 16 17 17 17 19 17 19 19 15 15 16 21 23 24 23 24 21 19 19 20 18 17 15 13 13 15 13 13 15 16 15 14 13 12 13 13 13 11 10 10 9 8 8 5 5 5 2 5
18 14 15 11 13 15 17 18 18 19 19 19 17 17 17 18 15 17 19 21 21 20 19 19 19 19 19 19 18 17 13 16 12 12 11 13 13 13 11 10 10 11 10 9 9 8 4 2 6 4 5 2 2 2
16 17 15 14 14 13 16 17 13 13 17 16 16 17 18 18 13 17 17 20 22 21 20 20 20 19 17 15 14 13 12 13 11 11 10 10 8 8 10 10 10 9 6 8 8 6 2 -2 1 -1 -1 -1 -0 1

GFSWCAN_sfc_dewp_114.txt.gz
Dewpoint
42 42 42 44 44 42 43 42 41 40 40 39 39 38 39 40 41 43 44 44 40 36 32 32 32 30 30 30 31 31 28 32 30 28 26 26 25 25 24 24 27 27 27 26 28 23 24 34 31 31 35 37 38 35
40 40 41 43 43 43 42 42 41 41 41 40 40 38 39 39 41 41 41 44 45 37 36 39 38 37 36 34 32 31 29 28 27 31 31 28 26 29 26 25 34 28 29 28 32 29 34 34 35 36 35 32 31 31
40 40 39 40 42 43 42 42 41 41 40 39 39 39 38 38 40 41 43 43 40 36 35 34 33 35 37 37 37 31 30 29 30 38 35 32 27 31 27 27 28 31 31 31 31 30 30 32 35 36 36 33 29 29
39 38 38 40 41 42 42 41 41 41 40 39 39 39 37 37 39 41 43 43 40 37 33 28 33 32 32 34 36 35 34 35 36 35 33 31 27 27 26 26 29 31 32 32 31 30 32 31 34 35 35 32 30 28
37 38 38 39 41 41 41 41 41 40 39 38 39 39 37 37 38 40 44 43 43 38 34 32 34 31 32 32 32 34 36 34 32 32 33 30 26 30 30 29 31 30 30 29 26 30 33 31 34 35 31 31 27 25
34 34 36 37 39 40 41 41 41 40 39 39 38 38 37 37 39 41 37 44 43 43 36 30 34 32 31 32 31 32 34 35 35 32 33 32 29 32 31 28 29 29 30 33 31 34 32 34 34 34 31 30 28 26
35 34 35 36 37 38 40 41 41 40 39 37 38 37 36 37 40 38 36 41 44 43 36 32 27 30 31 32 36 36 36 35 34 32 30 28 30 34 32 27 29 28 29 32 34 35 31 31 29 33 34 31 29 26
34 34 34 35 37 38 38 40 40 40 38 37 37 37 36 36 38 38 38 43 44 39 38 31 28 32 33 32 31 33 32 35 34 30 30 30 31 35 31 28 26 27 27 30 31 30 30 31 31 30 31 31 27 21
34 35 35 35 34 37 38 38 39 39 39 38 37 36 37 37 36 35 43 44 44 39 34 33 28 28 35 35 36 35 34 31 31 31 29 31 31 30 31 27 25 24 24 24 28 27 27 27 28 27 27 26 24 20
35 35 35 35 35 36 37 38 39 38 37 36 36 34 31 36 42 43 39 34 34 33 37 32 28 30 33 37 35 34 34 30 29 30 30 32 28 27 25 25 23 23 21 23 26 26 20 22 23 22 21 19 17 18
35 35 35 35 34 34 36 38 39 38 36 36 34 33 38 43 39 37 32 32 33 31 32 30 29 32 35 33 32 35 33 32 24 27 28 27 25 25 24 23 22 21 20 20 20 19 19 19 18 18 17 16 16 16
35 35 34 34 34 34 37 39 39 36 35 37 37 40 40 37 34 31 31 30 28 23 32 31 32 31 36 39 35 35 30 31 24 33 30 24 23 23 21 19 18 19 18 17 18 17 18 17 17 16 15 14 15 15
36 36 35 35 34 34 37 39 38 37 40 39 36 32 31 32 28 27 24 25 28 32 35 35 32 34 37 35 35 33 28 27 35 31 26 22 22 20 18 17 16 17 17 16 15 15 14 14 15 16 15 17 16 16
37 36 35 35 35 35 38 40 38 37 38 32 30 26 29 27 29 29 29 32 38 39 37 35 34 34 36 33 35 26 31 32 27 26 21 22 23 19 18 18 16 16 17 16 16 15 14 14 15 16 16 17 16 14
36 35 35 34 35 36 39 39 38 38 34 30 31 26 29 33 34 34 36 37 38 39 37 36 34 32 34 32 31 30 28 25 25 22 23 23 22 20 19 17 16 15 17 16 16 15 15 16 15 14 16 16 15 15
35 34 32 35 36 37 40 39 38 36 35 31 29 28 30 32 30 33 33 33 37 39 38 37 32 30 29 30 28 27 24 24 23 23 23 21 20 19 18 18 18 18 17 17 17 16 15 16 15 14 15 14 15 15
34 26 33 36 38 40 39 36 36 34 29 28 28 29 29 32 33 32 34 34 36 37 34 31 28 26 29 25 24 25 24 23 23 24 23 21 19 18 17 17 18 18 17 17 17 17 16 16 20 18 16 17 17 15
30 36 37 39 39 37 36 36 31 28 23 25 25 28 30 31 31 31 33 34 35 34 32 29 29 25 24 24 26 24 24 25 23 22 21 20 19 19 19 18 19 19 18 17 17 17 17 18 18 15 16 15 16 16
36 38 39 38 35 34 32 31 30 24 26 25 27 28 29 30 30 31 34 35 34 31 30 29 29 26 26 26 25 25 24 23 21 21 21 22 21 20 20 19 19 18 18 18 20 20 17 18 17 15 14 14 14 12
37 39 39 37 37 33 28 29 30 23 23 25 27 26 29 28 29 32 33 30 28 29 28 27 26 27 27 28 28 26 26 24 21 18 18 19 19 19 19 19 19 19 19 18 17 17 17 16 15 16 14 12 18 16
37 39 38 38 37 36 31 28 24 23 23 25 24 23 25 27 29 30 28 25 29 27 25 25 26 28 30 29 28 26 25 22 21 19 18 18 21 20 21 20 19 20 19 20 23 16 17 17 15 16 21 19 18 17
36 38 35 35 33 30 29 26 23 25 24 24 26 25 26 26 27 27 24 26 25 24 25 24 24 25 24 24 25 26 27 26 24 21 21 21 20 19 19 20 20 20 21 21 19 21 18 16 17 17 18 16 15 15
37 36 35 32 29 27 26 29 25 23 22 24 23 22 23 24 24 20 25 23 22 24 25 23 25 27 25 26 24 24 25 22 20 21 21 22 22 23 22 21 22 21 19 16 15 17 18 10 13 17 15 15 15 14
32 32 32 29 26 23 29 27 22 21 22 22 22 19 21 22 19 21 21 22 22 25 24 26 23 21 20 19 18 20 22 21 20 21 21 18 17 18 18 17 18 18 16 14 14 16 15 18 10 13 15 13 14 14
28 24 28 24 28 24 22 22 22 21 20 20 18 19 20 20 21 21 21 22 21 22 22 22 21 19 19 21 21 20 21 19 18 17 19 17 19 16 15 14 14 14 16 18 17 17 17 16 15 14 12 12 12 10
21 22 23 23 25 24 22 21 21 21 20 20 20 20 21 21 19 19 18 24 23 23 24 25 24 21 20 19 18 17 18 19 19 16 16 16 17 19 18 16 15 15 15 18 18 14 15 13 13 11 11 10 5 8
21 20 20 19 21 22 24 24 23 23 21 19 21 20 20 16 16 18 23 23 23 25 25 25 23 21 19 19 18 19 19 18 20 17 17 15 15 16 19 18 16 17 16 15 16 14 14 14 12 11 12 12 12 12
19 21 19 21 21 21 20 21 21 20 21 20 21 18 16 17 18 21 23 26 26 25 24 25 24 21 21 21 21 21 21 19 19 18 16 15 16 17 17 16 14 15 15 14 15 15 14 13 12 11 10 11 12 12
20 20 17 13 17 18 18 18 19 17 16 20 22 18 16 16 21 23 28 27 27 26 25 24 26 26 24 23 23 21 20 19 15 12 10 12 12 13 15 14 13 15 15 12 11 14 12 14 13 13 10 11 12 11
18 21 17 13 14 16 17 18 19 19 16 19 16 13 14 16 18 21 27 26 25 26 26 26 25 23 21 21 20 20 22 22 20 17 15 15 16 17 16 15 14 14 16 15 13 9 7 9 10 10 9 9 9 9
19 22 18 18 16 17 17 18 19 19 20 19 22 21 15 15 20 21 23 27 26 25 25 22 21 22 21 21 19 18 18 20 17 18 20 19 17 17 16 16 16 14 14 13 12 11 10 8 9 8 8 7 7 6
20 18 17 15 16 16 19 21 20 20 19 20 17 17 17 19 14 18 21 24 26 23 21 21 21 21 22 23 22 20 17 17 15 15 14 16 16 16 15 14 14 13 12 11 10 10 6 6 7 7 7 5 7 6
18 18 17 17 16 16 17 19 15 16 18 17 18 20 21 20 13 15 18 21 21 24 22 24 25 23 21 19 18 17 16 16 14 15 15 15 13 12 12 12 12 11 9 9 8 8 5 3 4 4 4 3 3 3

GFSWCAN_sfc_dewp_117.txt.gz
Dewpoint
44 45 45 45 43 43 43 42 42 42 42 41 41 40 40 41 42 42 40 42 37 34 33 35 36 34 33 31 28 30 28 28 27 24 27 24 24 25 26 33 31 27 23 20 25 22 20 35 31 28 33 37 36 36
43 43 44 44 44 42 43 42 42 42 42 41 41 41 40 41 41 41 39 44 43 36 34 38 37 37 37 35 34 32 29 28 28 26 27 27 24 27 26 27 32 28 29 28 27 26 33 34 34 36 36 32 30 30
42 41 41 43 44 44 42 42 42 42 42 41 41 39 39 39 40 40 39 42 40 35 34 33 33 36 37 37 37 31 31 31 34 36 31 30 24 25 26 24 28 32 33 29 31 30 31 30 32 35 35 35 31 28
41 41 42 42 43 42 42 42 42 42 41 41 40 40 39 38 38 40 38 41 39 37 30 30 36 34 37 37 38 37 36 35 34 34 30 28 26 28 25 27 30 31 29 26 28 29 31 30 32 33 32 32 29 29
40 40 40 41 42 42 43 42 41 42 41 39 39 40 38 37 37 39 39 41 40 36 31 30 34 34 33 34 33 36 35 33 32 27 27 24 28 28 30 32 30 30 28 26 25 29 31 29 32 32 29 30 28 26
38 39 39 40 41 42 42 41 41 41 40 40 39 39 38 38 38 37 34 40 42 42 34 27 34 33 35 34 34 33 35 33 33 30 25 29 29 28 27 23 29 30 30 31 30 33 31 32 33 33 31 31 29 26
37 37 37 36 40 41 41 42 41 40 40 40 40 39 38 38 37 34 34 40 43 43 35 27 28 32 34 34 35 35 35 35 33 31 28 28 28 31 27 23 29 29 29 30 34 34 29 30 29 32 33 34 29 26
35 35 37 38 38 40 41 41 41 41 40 39 39 39 38 37 37 34 37 42 44 39 37 27 26 30 34 32 29 33 32 34 32 29 29 28 30 31 26 29 27 27 28 31 29 30 30 30 29 28 29 31 28 26
36 36 37 37 37 39 40 41 41 40 39 38 38 37 36 34 31 33 42 44 43 38 32 31 25 20 34 34 35 33 33 29 31 28 28 28 25 23 29 26 24 24 24 24 29 27 27 26 25 25 26 26 24 22
36 36 37 37 37 38 39 40 40 39 38 39 36 31 26 32 42 41 39 35 34 35 35 30 29 25 33 31 32 30 34 31 24 28 31 26 23 28 26 24 22 22 21 22 28 20 21 22 22 19 17 17 17 17
35 34 35 35 36 37 37 39 40 40 38 35 31 29 34 41 36 34 28 29 31 29 30 31 30 27 34 28 25 29 31 31 24 26 28 28 22 25 24 22 22 21 19 20 19 18 18 18 19 17 16 15 15 15
35 35 34 34 35 34 35 39 40 37 34 34 34 39 38 34 30 26 27 27 28 24 28 27 28 31 32 35 31 31 27 26 22 31 27 19 22 22 20 19 19 19 18 16 16 16 16 16 16 15 14 13 15 15
35 35 34 34 35 34 36 38 39 39 38 37 34 32 30 30 23 21 19 23 21 27 29 29 25 31 32 33 26 28 25 23 28 25 21 20 23 19 18 17 17 17 16 16 14 14 13 14 14 14 12 11 11 9
36 37 36 35 35 36 37 38 38 38 36 28 27 18 24 25 25 23 23 25 29 31 31 30 28 28 28 28 30 23 25 29 22 18 17 21 21 19 18 17 16 16 15 14 13 11 11 12 11 9 7 6 5 4
36 36 36 35 36 35 37 39 38 38 30 28 29 18 25 32 31 32 33 31 32 33 31 29 28 30 28 24 27 25 24 18 22 16 17 20 19 18 17 16 15 14 12 11 10 10 9 10 11 10 10 7 7 6
36 36 34 36 35 35 37 39 38 35 30 30 28 24 29 30 29 32 32 33 34 29 29 29 26 26 22 26 26 19 22 18 20 19 20 20 17 16 16 16 16 14 12 10 10 11 11 8 6 5 5 6 2 2
36 30 35 36 37 38 39 36 34 29 26 27 26 28 28 29 30 31 32 32 34 31 28 28 23 22 27 21 24 25 20 15 19 20 20 18 16 13 13 14 14 15 14 14 12 10 8 11 12 15 11 7 7 6
29 33 36 37 37 36 36 36 30 26 25 24 20 27 28 29 30 30 32 33 33 32 30 28 27 23 19 20 21 21 20 22 20 19 18 16 15 13 14 10 11 12 10 8 9 7 9 10 13 8 8 10 13 12
33 34 36 38 37 34 31 30 30 25 25 25 26 28 28 28 26 27 31 32 33 33 31 26 22 24 24 23 22 22 20 18 17 17 17 15 16 14 12 15 12 8 8 8 12 17 11 11 12 14 16 18 13 11
36 36 38 38 37 31 28 28 31 24 21 23 26 25 28 28 28 29 31 31 31 31 28 22 25 25 20 19 21 22 21 20 18 16 15 13 17 13 10 13 13 10 13 12 12 13 15 17 18 15 14 15 15 13
37 38 38 37 35 35 32 30 28 25 25 23 27 25 25 24 24 28 26 27 29 25 21 22 26 26 21 23 25 23 20 19 16 15 14 15 12 15 16 20 15 15 16 17 16 8 12 12 14 17 12 6 6 5
37 38 36 36 33 33 31 31 26 26 25 25 25 25 25 25 26 26 26 25 23 19 20 19 24 22 21 19 20 20 19 22 20 18 17 17 19 16 15 14 15 16 17 12 18 16 14 14 13 13 5 1 9 4
38 36 33 33 29 28 26 30 26 24 19 24 27 22 21 23 24 23 21 25 18 19 21 23 23 22 22 19 22 20 20 20 19 19 19 18 18 19 17 16 20 16 13 13 18 15 10 8 6 4 2 4 8 -1
37 32 31 29 29 24 29 28 29 27 25 23 24 20 23 23 21 19 22 18 16 24 22 22 24 22 21 21 18 17 19 21 20 19 22 21 19 18 19 18 17 17 19 17 16 13 11 1 2 4 1 -3 -2 -2
26 24 27 26 28 25 24 22 22 22 20 21 17 15 18 20 13 17 21 18 21 22 24 22 21 20 19 16 17 17 21 20 20 19 18 19 17 17 16 16 16 16 17 9 5 5 2 1 -1 2 2 -2 7 -2
24 24 23 24 26 24 23 21 19 21 20 13 14 19 17 14 13 12 19 19 20 22 22 21 20 19 19 19 19 18 19 20 20 17 18 19 17 15 12 11 10 9 13 11 11 8 5 1 -1 -0 -4 -2 -3 -7
21 19 22 21 24 26 21 24 25 18 12 11 15 13 12 7 8 14 19 20 20 20 23 23 21 20 20 19 19 20 20 20 19 18 17 17 18 17 15 12 10 11 13 9 6 4 9 4 -2 -3 -4 -0 4 -5
21 22 14 19 18 22 18 15 14 13 15 21 19 10 8 8 12 19 22 20 22 23 23 24 24 22 20 20 20 17 16 16 15 15 15 14 15 13 10 8 11 13 6 3 2 3 3 3 1 -3 -5 -2 0 -6
21 21 15 4 11 14 13 14 15 16 17 18 13 11 10 16 18 17 24 21 22 23 23 22 22 22 20 19 18 17 16 15 10 6 3 4 3 6 8 7 7 7 5 5 11 7 6 3 0 -1 -2 -3 -3 -6
15 22 13 7 6 10 11 15 14 13 16 16 16 14 13 11 15 21 24 24 21 25 25 22 20 19 18 17 16 12 11 11 10 9 9 9 9 12 11 10 9 11 8 4 -0 -1 7 -0 2 -4 -4 -6 -7 -8
20 22 14 15 12 13 11 12 12 13 13 15 16 12 8 11 16 20 19 22 25 23 21 20 19 16 17 16 15 14 15 14 11 13 14 15 14 13 13 12 12 10 12 10 4 2 -3 -4 -3 1 0 -5 -7 -7
16 13 10 10 9 10 13 18 19 19 10 13 10 8 9 7 6 14 18 17 22 18 18 17 17 16 16 19 17 15 14 13 10 12 11 14 13 13 13 13 13 11 9 7 4 2 -0 -2 -1 -3 -5 -7 -9 -10
13 13 13 11 9 11 11 14 16 11 17 16 16 17 16 11 3 10 15 14 16 19 19 17 21 20 17 15 14 14 13 12 10 15 14 13 11 11 10 9 10 10 8 7 5 3 1 -1 -3 -4 -7 -8 -9 -10

GFSWCAN_sfc_dewp_120.txt.gz
Dewpoint
45 45 44 44 43 43 43 43 43 43 43 42 41 41 41 43 44 41 39 40 34 29 32 35 37 32 33 30 26 29 25 27 26 23 25 23 23 25 25 31 29 27 24 24 23 20 17 32 29 26 32 32 33 33
44 44 45 45 43 43 43 43 43 43 42 42 41 41 41 42 42 40 38 42 40 33 30 36 36 35 36 35 32 31 28 27 29 24 24 26 24 25 25 21 33 27 30 25 26 25 32 32 33 34 36 33 31 29
43 44 45 45 44 43 43 43 43 43 43 42 42 40 40 41 42 40 39 41 37 34 31 32 31 36 37 36 36 30 30 32 33 33 29 28 24 23 21 22 26 31 31 28 29 29 29 30 31 33 34 32 31 34
43 43 43 42 43 42 42 42 42 42 42 42 42 41 40 40 41 40 37 41 38 34 28 28 34 31 36 38 37 36 34 36 35 33 29 26 25 28 24 26 27 31 28 28 26 29 29 29 30 29 29 30 27 27
41 42 42 43 44 43 42 42 42 42 42 41 40 40 38 38 39 38 37 39 39 34 27 28 32 34 35 37 37 37 34 32 30 25 22 23 28 27 27 30 25 29 26 22 18 25 29 27 30 30 28 28 28 27
41 41 42 42 42 43 43 42 42 42 41 40 40 39 38 38 39 36 29 37 40 42 32 26 32 32 34 33 32 35 35 35 32 29 23 26 30 26 20 26 29 30 30 32 30 31 30 30 31 32 30 30 28 26
40 40 40 41 42 42 42 41 41 41 41 41 41 40 38 39 37 33 30 39 42 42 33 26 26 33 34 35 34 34 37 35 33 30 28 27 27 29 24 23 29 30 30 31 32 31 27 30 28 30 30 33 30 27
38 38 38 40 41 42 42 41 41 41 41 40 40 40 39 38 36 31 36 42 44 39 36 27 25 30 34 30 29 32 31 34 33 30 29 27 29 29 23 29 29 29 29 30 28 29 29 28 27 27 29 29 25 24
37 38 38 37 39 41 41 41 41 41 40 39 39 38 35 33 29 31 39 43 42 38 30 30 24 23 34 32 31 31 31 24 29 26 27 27 23 16 26 26 24 25 23 26 30 28 27 25 23 23 23 22 20 20
37 37 38 38 36 40 41 41 41 40 40 39 34 28 19 29 36 40 38 34 35 34 34 29 29 24 30 24 30 28 33 30 23 26 30 24 21 25 25 22 22 21 20 29 21 20 21 22 18 17 16 16 16 16
35 36 36 37 38 39 40 41 41 40 38 33 23 28 31 37 34 31 27 28 30 28 29 29 29 25 32 25 22 27 29 30 24 24 25 26 21 23 24 21 20 19 18 18 19 19 18 21 17 16 14 14 15 15
35 35 35 36 37 38 39 40 40 37 33 32 32 37 35 31 28 24 24 27 28 23 25 25 27 29 30 32 27 31 27 27 23 31 29 19 20 21 19 18 17 17 16 15 15 15 16 15 15 14 13 13 14 15
36 34 34 35 36 36 38 40 38 39 38 35 32 31 30 23 21 21 18 23 18 24 25 26 23 30 33 32 29 21 24 22 25 20 16 19 21 18 17 16 16 16 15 14 13 13 13 14 14 13 9 7 8 7
37 36 34 34 35 36 39 40 39 38 31 25 25 17 23 21 19 21 21 22 26 25 28 27 25 27 26 26 19 14 22 27 22 16 14 18 19 17 17 16 15 14 13 12 9 9 9 10 8 7 3 2 5 7
36 36 35 34 35 36 38 39 39 36 28 23 26 16 16 28 30 29 31 33 32 27 29 27 27 28 23 25 27 24 25 22 19 13 11 17 17 17 16 16 14 12 8 7 5 5 2 3 6 2 0 1 2 -2
36 36 34 36 36 36 38 39 37 33 28 27 25 19 22 27 27 31 32 32 34 28 26 28 26 25 25 25 25 21 21 15 13 15 17 18 15 15 14 14 12 11 10 8 8 7 6 3 3 2 1 1 -4 -3
35 32 36 36 37 38 39 35 33 27 24 25 19 20 21 27 28 30 32 32 34 29 21 28 21 21 26 24 22 25 20 10 18 19 17 16 14 13 12 12 10 10 9 8 5 6 4 5 5 10 6 2 4 4
29 34 37 35 37 37 34 34 27 25 22 20 18 21 27 29 28 28 30 32 33 30 28 27 27 24 20 20 15 16 20 19 16 16 14 13 12 11 13 10 9 11 10 6 7 4 5 6 10 6 6 7 7 8
32 35 37 37 36 35 31 31 30 21 20 21 21 24 28 26 27 27 27 31 32 32 30 25 18 18 16 14 11 11 17 13 16 10 5 5 10 11 9 9 9 5 8 5 8 9 9 10 12 11 11 15 10 12
37 38 37 37 38 34 28 27 30 25 21 21 24 25 25 20 20 19 29 30 31 31 28 23 16 19 16 14 14 19 17 18 16 14 13 7 6 10 10 12 11 8 9 8 9 10 11 12 14 13 13 14 10 7
35 36 37 36 36 34 29 27 27 26 26 23 26 26 21 23 23 27 26 28 28 22 16 13 22 16 12 16 22 20 19 18 15 14 14 14 11 14 11 11 11 11 12 9 9 6 16 12 12 15 6 -1 -2 0
34 36 35 35 31 31 29 31 27 25 25 25 25 24 20 18 23 27 25 21 19 16 17 17 20 16 20 17 19 20 18 18 17 15 14 15 13 13 14 12 14 12 15 14 15 11 11 14 13 10 4 -1 0 -0
36 36 32 31 27 25 24 30 25 25 18 21 25 22 17 18 21 24 14 21 16 16 17 18 16 18 18 12 19 18 18 18 16 16 16 16 16 15 17 14 16 16 15 12 16 12 9 8 7 2 -2 -0 -3 -8
37 31 28 27 27 23 27 23 28 26 25 23 22 16 22 20 22 16 16 14 13 17 20 19 22 21 21 21 19 19 20 19 18 18 18 18 17 17 17 17 20 17 16 17 15 10 7 2 -0 1 -7 -7 -4 -4
26 25 26 24 28 23 20 21 21 20 11 14 18 11 19 19 9 8 13 12 22 21 22 23 22 21 20 16 17 18 20 19 18 17 19 21 17 18 17 16 15 16 16 11 6 6 0 -7 -6 -3 -5 -7 -2 -7
21 23 21 24 23 22 19 14 13 12 17 15 11 14 12 9 11 10 15 10 19 22 23 22 21 20 20 20 19 19 20 21 20 19 19 20 19 17 14 12 11 9 12 12 7 3 4 -2 -4 -1 -4 -3 -4 -9
16 20 25 24 26 28 19 20 22 15 8 7 11 7 7 5 4 10 16 15 16 16 24 23 22 20 19 19 20 19 21 21 19 18 18 18 17 17 16 13 11 12 12 11 9 7 5 2 -1 -2 -3 -9 -6 -7
21 24 18 20 19 21 14 13 11 11 9 18 14 8 7 5 7 14 19 18 16 22 23 22 22 21 21 19 17 16 16 15 14 14 14 13 11 7 7 10 12 14 9 8 6 4 7 3 1 -3 -6 -0 -4 -11
20 22 18 11 12 14 11 11 11 14 16 14 6 4 6 14 12 14 16 18 21 23 22 20 18 18 16 15 13 15 16 15 11 8 6 2 2 5 4 6 8 8 10 9 11 7 6 4 3 1 2 2 -1 -9
16 20 11 4 4 7 5 9 7 5 12 12 13 12 10 11 15 19 18 20 21 22 19 19 19 18 16 14 12 9 6 5 11 13 11 7 8 7 6 6 7 5 6 9 8 8 12 5 6 -0 0 -1 -4 -4
18 19 10 6 4 3 2 0 1 5 4 8 5 3 3 6 15 16 12 14 21 20 19 17 15 13 14 13 13 11 8 7 5 7 8 10 11 10 9 9 11 9 7 4 5 3 2 1 1 -0 -2 -4 -6 -4
9 6 4 2 1 2 2 6 7 3 1 1 -0 -5 1 1 2 8 11 12 11 12 16 15 16 13 13 14 11 8 9 10 8 9 11 12 12 12 12 10 9 12 10 6 6 7 3 4 2 2 3 3 1 -1
3 -1 -3 -2 -1 3 2 5 9 8 10 5 4 4 4 -4 -4 -1 7 11 11 10 12 14 13 10 10 8 7 3 5 6 8 14 12 12 11 12 10 9 9 8 7 6 5 5 4 3 1 0 0 -1 -3 -4

GFSWCAN_sfc_dewp_123.txt.gz
Dewpoint
45 44 43 43 43 43 43 43 43 44 43 41 40 41 43 44 44 40 39 39 33 28 29 34 36 32 31 29 25 27 23 25 26 22 24 22 22 24 25 29 27 25 23 22 22 19 15 30 28 25 31 33 32 29
44 44 43 43 43 43 43 43 43 43 43 42 41 41 42 43 42 40 38 41 39 32 29 36 36 35 34 33 31 30 27 27 29 22 22 25 23 24 24 20 30 21 30 25 27 25 30 32 32 34 34 32 32 30
45 44 44 43 43 43 42 40 42 43 42 43 42 41 42 42 42 41 38 38 35 29 28 29 31 35 37 35 35 27 29 31 32 31 28 27 24 23 21 22 25 30 30 26 28 29 29 29 29 30 31 30 30 32
44 43 44 44 43 42 42 42 42 43 42 42 42 41 41 41 41 40 37 38 35 34 23 27 33 30 37 37 36 34 33 36 35 31 28 25 25 27 24 25 26 30 27 27 26 29 29 28 27 28 28 30 28 26
43 44 44 44 43 42 42 42 43 43 43 42 41 41 40 40 41 39 38 37 37 31 25 27 31 33 35 37 36 36 34 32 28 25 22 23 28 26 27 28 27 28 25 21 14 28 29 28 30 30 27 27 29 28
43 43 43 43 43 42 41 42 43 42 42 42 41 39 39 40 38 34 27 36 39 41 28 23 30 31 33 36 37 36 34 35 32 28 23 25 29 26 18 22 29 30 31 32 30 31 29 29 30 31 32 30 28 27
41 41 43 43 43 42 42 42 42 42 41 42 41 40 39 40 36 31 29 39 41 41 31 22 25 32 35 35 34 36 37 35 34 32 28 27 26 29 23 25 28 29 30 30 32 30 26 28 27 28 31 29 29 27
41 41 41 42 42 43 42 42 42 41 41 41 41 40 39 38 34 31 38 42 42 38 35 21 23 31 35 31 30 31 33 34 33 32 28 27 28 27 20 29 30 29 29 29 28 28 27 26 25 25 27 25 22 21
40 40 41 41 42 42 42 42 41 41 41 41 40 38 34 33 30 30 41 42 41 37 28 27 21 19 35 33 29 30 29 26 29 25 27 27 21 19 22 28 27 25 25 28 28 26 24 22 19 19 20 19 18 17
39 39 39 41 42 42 42 41 41 41 41 38 33 28 22 30 35 40 37 34 35 35 33 28 27 26 31 27 29 27 32 26 23 26 29 23 18 24 23 23 22 21 23 26 22 21 22 18 17 16 16 15 15 15
37 37 37 37 41 42 42 41 41 40 36 31 25 23 30 37 34 30 27 27 30 26 30 27 27 23 31 24 23 25 27 28 23 24 25 23 19 22 22 20 20 19 19 19 19 19 20 18 17 15 14 14 14 14
36 36 37 38 39 41 41 40 39 35 31 31 32 35 35 30 27 23 23 25 26 22 26 27 27 28 29 28 25 30 26 28 23 31 27 18 16 21 18 17 16 16 15 15 16 17 16 15 14 13 12 13 13 12
36 36 36 38 38 40 40 40 37 37 37 34 30 29 27 23 17 18 16 23 23 23 23 25 22 27 29 29 27 27 25 23 25 23 16 13 19 18 17 16 15 14 14 13 13 13 13 12 11 11 8 6 4 5
36 36 36 36 37 39 41 39 39 35 29 21 19 12 16 18 20 17 20 20 23 22 24 25 24 26 29 25 18 12 19 26 22 20 13 14 17 18 17 16 14 13 12 11 8 8 8 7 1 -3 -4 -6 -1 -1
37 36 36 36 37 39 40 39 38 33 26 24 25 14 13 20 26 28 24 28 31 28 25 25 26 28 26 26 26 21 23 22 18 14 10 15 18 17 16 15 12 10 7 6 2 3 -2 -0 4 -1 -4 -4 -2 -6
36 35 33 37 36 38 39 37 36 31 26 23 24 18 18 19 20 18 32 32 34 24 26 27 25 21 23 20 24 20 18 13 13 12 12 17 16 14 14 13 10 9 7 5 5 5 3 1 1 0 -2 -1 -6 -6
35 31 35 36 37 38 38 34 32 26 23 24 22 25 19 20 26 28 30 32 34 31 27 28 20 22 26 23 23 25 19 12 13 17 17 16 14 12 11 11 9 8 8 8 5 5 2 2 2 8 5 0 2 1
29 35 36 37 37 37 35 34 29 26 22 18 14 16 19 26 27 28 29 32 32 32 27 24 26 22 22 18 13 13 19 17 13 13 11 11 12 12 12 9 8 9 8 6 6 2 3 3 6 4 4 3 5 5
34 35 37 37 36 35 30 30 29 19 16 16 17 20 25 27 26 26 29 30 32 32 27 24 17 16 16 16 14 6 13 13 14 8 4 2 10 10 8 8 8 5 7 5 6 9 7 9 10 9 9 11 7 10
37 38 38 37 37 34 28 27 29 25 18 19 22 24 25 25 24 20 27 29 30 31 27 21 18 15 17 15 15 12 15 16 15 12 6 2 3 9 10 12 11 8 9 5 6 8 9 10 11 12 12 12 8 8
35 36 37 37 35 35 30 26 26 25 25 22 25 26 23 25 21 18 25 29 29 21 18 15 12 19 10 11 16 18 17 18 16 14 13 10 7 14 11 11 11 11 10 9 9 6 8 10 10 13 5 -2 -4 -1
33 36 34 34 31 31 30 29 26 25 24 25 25 25 19 15 14 22 26 25 23 19 17 18 20 15 15 15 15 18 18 17 16 15 14 14 12 12 13 11 12 10 10 8 11 9 11 13 12 9 1 -6 -3 -3
35 33 30 29 26 25 21 30 25 25 20 19 25 19 16 14 19 24 13 20 18 15 15 16 14 16 15 9 17 16 16 16 15 15 15 15 15 13 13 11 13 10 10 12 15 11 9 8 6 2 -3 -5 -5 -10
34 28 25 23 22 18 25 22 28 24 21 20 20 13 17 17 21 14 14 13 14 14 17 14 21 18 18 19 16 17 17 17 16 16 16 15 14 14 15 15 16 16 17 16 15 11 9 4 2 1 -6 -8 -11 -10
19 17 20 15 25 20 16 15 20 21 8 12 16 9 15 18 10 8 10 11 20 20 14 18 19 20 18 13 15 16 19 17 16 15 16 16 16 16 16 16 17 17 17 12 3 3 -4 -10 -9 -5 -5 -7 1 -6
16 19 23 22 23 19 18 12 13 10 10 9 11 12 11 7 9 8 13 14 18 23 23 23 19 17 18 19 18 18 19 19 17 16 17 19 19 17 15 14 11 13 15 14 8 3 2 -4 -5 -2 -7 -6 -5 -9
18 21 24 27 27 27 22 20 22 18 11 8 7 6 7 5 3 9 17 18 19 15 21 25 23 21 19 19 19 19 20 19 17 17 18 19 18 18 17 14 12 14 14 12 11 9 8 5 1 2 1 -9 -5 -1
17 20 12 21 23 23 20 17 15 13 10 17 12 6 5 5 4 10 13 16 20 20 20 22 23 21 20 19 17 16 13 13 13 13 13 11 8 5 6 8 10 15 13 12 12 11 11 10 7 4 1 3 3 -4
15 19 19 11 16 16 13 13 12 15 16 16 7 2 6 13 11 11 14 16 19 19 17 17 15 15 15 14 13 13 15 16 11 5 3 3 3 7 2 2 7 8 8 7 12 11 11 11 9 7 5 5 3 -3
16 21 16 12 13 10 5 12 9 7 12 13 14 12 10 9 11 13 11 11 16 11 12 12 12 12 13 13 8 7 3 3 5 12 11 9 11 6 5 5 5 5 8 9 9 9 11 7 9 5 4 1 -0 -0
20 20 15 13 10 8 7 4 3 5 5 6 5 4 5 6 10 10 8 9 11 17 16 11 10 9 13 13 12 12 11 5 -0 3 5 5 8 9 7 4 4 4 5 6 5 2 -1 -1 1 4 6 4 3 3
11 10 10 6 6 5 5 6 6 3 0 1 1 -3 4 2 -4 3 7 7 7 6 7 12 15 13 9 12 11 12 10 10 9 8 8 6 2 2 6 7 6 5 2 1 -0 -1 -0 0 0 1 4 3 3 1
4 3 0 -4 -2 -1 -2 2 5 5 4 1 -0 -1 -6 -10 -8 -3 3 6 5 8 8 8 8 8 9 11 11 8 5 6 6 10 6 6 4 7 7 7 8 7 4 3 1 0 0 -0 -0 0 2 2 0 -1

GFSWCAN_sfc_dewp_126.txt.gz
Dewpoint
45 44 44 43 43 43 43 43 43 43 41 41 41 42 44 44 43 40 39 39 32 29 29 33 35 32 31 28 23 26 23 24 25 21 23 22 22 25 24 28 28 23 23 20 21 18 13 29 26 24 30 33 31 29
44 44 43 42 43 43 43 43 43 43 42 41 41 42 44 43 42 41 37 40 38 32 30 36 36 35 33 31 30 30 25 27 29 22 21 25 24 23 24 20 28 20 26 23 26 24 30 30 30 32 33 32 31 29
44 44 43 42 42 43 42 42 43 43 42 42 41 42 43 43 43 41 37 37 34 30 28 30 31 35 36 35 33 27 29 30 30 30 27 26 24 23 20 21 25 30 30 26 26 29 29 28 28 29 31 30 28 29
44 43 42 42 43 43 42 41 42 43 43 43 42 42 43 42 42 40 37 36 35 31 27 28 32 30 37 36 34 33 33 35 33 30 27 24 24 27 24 25 26 28 28 26 26 29 29 28 28 29 29 30 28 28
43 43 43 43 43 43 42 42 42 42 43 42 41 42 42 42 42 39 37 37 36 30 26 26 30 33 34 36 35 34 33 32 28 24 22 23 27 26 26 28 21 28 26 21 23 28 28 28 30 31 28 28 28 26
43 44 44 43 43 43 41 41 42 42 42 42 41 40 41 40 36 34 29 36 39 37 27 22 29 30 35 36 37 35 34 33 31 28 22 24 28 25 17 18 28 30 32 32 29 30 29 28 28 28 29 28 26 24
43 43 44 43 43 42 42 42 43 42 42 42 41 40 40 39 37 30 29 38 41 37 27 22 25 31 34 35 33 36 37 34 33 31 27 27 26 29 25 22 28 30 31 31 32 30 26 27 24 29 27 26 25 23
43 43 44 42 43 42 42 42 42 42 42 41 41 40 38 37 34 33 40 42 41 35 31 20 23 30 35 32 31 32 34 34 33 32 29 27 28 26 17 26 29 29 28 28 27 26 24 23 22 23 24 23 20 19
41 43 43 43 43 42 42 41 41 42 41 41 40 36 33 32 28 32 42 42 40 33 25 23 23 22 34 32 31 29 29 26 28 25 26 26 22 23 22 29 28 25 28 28 25 23 21 19 18 18 18 17 16 16
41 41 43 43 43 42 41 41 41 41 41 37 32 28 22 29 37 41 37 34 31 34 31 25 27 28 32 29 29 25 31 26 23 25 28 23 25 23 23 23 22 23 25 30 25 22 19 17 17 16 15 15 14 13
40 41 41 41 42 41 41 41 41 40 34 31 25 25 31 37 33 28 23 23 28 25 28 27 27 28 30 24 25 25 28 29 22 25 24 19 19 21 23 21 19 19 19 20 21 21 19 18 16 14 14 14 14 13
39 39 41 41 41 41 41 41 39 32 29 30 32 35 34 29 26 18 20 25 25 23 27 26 26 28 29 28 25 30 25 28 22 29 25 16 15 21 19 17 16 16 17 17 17 17 17 15 14 13 12 12 12 11
38 39 40 43 42 41 41 39 36 37 37 32 29 23 21 23 13 13 13 21 21 25 25 28 24 26 32 28 28 28 24 23 26 24 16 16 18 19 17 16 14 14 14 14 14 14 13 10 10 10 7 3 2 1
38 39 39 40 42 41 39 39 38 33 28 19 17 16 14 18 18 17 21 23 24 23 22 22 27 25 24 22 18 13 21 25 22 19 13 12 17 18 17 16 14 13 12 10 8 7 6 5 -2 -6 -7 -9 -5 -4
36 38 39 39 40 40 39 39 36 31 25 20 18 7 16 17 23 26 23 26 25 31 24 23 25 27 23 22 26 21 17 12 15 12 13 11 18 17 16 15 12 10 6 5 2 3 -0 -1 4 -3 -7 -7 -3 -9
36 35 35 39 39 41 38 37 34 30 26 22 23 19 17 19 15 16 26 28 31 29 30 28 24 17 20 19 23 19 17 11 12 13 10 17 16 15 14 12 10 8 6 4 4 4 4 2 3 0 -4 -4 -9 -7
34 30 36 37 40 39 38 34 31 26 23 22 19 24 25 20 18 19 28 31 33 31 29 30 18 16 24 22 21 24 15 14 10 9 14 16 15 13 10 9 7 7 7 6 4 5 1 2 3 7 4 -1 0 -1
30 34 37 39 38 37 35 34 28 25 21 16 14 11 15 25 27 28 28 31 31 31 30 23 25 21 21 17 13 16 11 10 14 10 8 9 11 11 11 8 7 8 8 6 6 3 2 2 6 3 3 2 3 3
34 35 37 37 35 34 30 30 29 19 15 14 13 19 25 26 26 23 24 29 31 32 30 24 17 16 16 16 14 5 5 11 12 7 3 -0 9 10 7 7 7 5 7 5 6 8 7 7 8 8 8 9 7 7
37 36 36 37 37 31 27 28 29 24 18 18 19 22 21 22 23 21 26 26 30 31 28 21 19 19 18 16 15 13 11 14 13 11 3 2 1 8 8 10 10 8 8 6 5 7 8 8 10 10 10 10 8 7
35 35 36 34 34 34 28 26 25 25 23 19 23 24 18 24 21 17 20 27 27 27 25 20 12 10 14 9 13 15 17 17 16 16 14 10 5 12 9 9 10 11 10 8 9 5 7 8 9 12 2 -3 -4 -2
34 35 33 33 30 29 27 28 25 24 22 23 24 25 18 14 16 22 24 22 23 21 17 14 13 22 14 13 11 15 15 17 15 14 12 12 11 11 11 10 12 9 10 8 10 8 9 11 9 8 0 -7 -4 -4
34 31 29 29 22 22 21 30 22 24 20 19 25 21 19 18 20 24 18 20 17 13 12 14 13 14 13 8 16 15 14 16 14 14 13 14 13 12 13 11 12 10 10 11 13 11 8 7 7 5 -3 -6 -6 -10
32 23 23 20 20 9 24 22 27 25 23 21 19 17 16 19 21 16 15 13 10 15 16 12 17 16 17 18 14 13 14 16 15 13 14 14 13 13 14 14 14 14 14 15 15 11 7 5 3 3 -5 -11 -14 -11
16 14 20 13 23 20 19 14 20 22 13 17 14 9 17 18 9 8 9 9 20 22 21 19 18 18 14 9 11 13 17 16 15 14 13 16 14 15 14 15 15 16 16 9 3 2 -4 -2 2 1 -3 -5 1 -5
8 10 18 17 18 18 17 11 12 12 9 12 15 10 10 7 11 9 12 15 16 21 22 23 22 20 16 17 16 16 17 18 17 14 15 16 15 14 14 13 12 10 13 12 9 6 5 4 4 4 2 2 -0 -0
12 14 24 27 27 27 22 21 22 16 12 9 6 5 7 5 3 9 15 16 17 19 20 20 24 23 20 18 18 17 18 17 15 15 17 18 17 17 16 14 12 14 14 13 12 11 10 6 5 6 6 3 2 3
17 20 16 18 22 23 21 20 20 18 17 17 14 8 4 7 4 7 11 14 15 17 20 20 21 21 20 18 17 16 12 11 11 12 13 11 7 4 6 8 9 16 13 13 12 9 9 8 6 5 7 7 7 4
18 21 19 12 14 14 13 16 16 16 16 17 13 5 6 10 6 7 9 10 12 18 14 13 12 13 14 14 13 13 14 15 11 7 4 3 3 8 1 1 7 8 8 7 11 10 9 8 7 6 5 5 5 3
14 18 11 7 11 10 9 12 9 9 14 15 15 13 11 7 7 9 7 7 7 8 12 10 8 6 7 10 9 10 10 10 10 12 13 10 10 3 3 3 2 -2 2 6 6 8 11 4 5 -2 -2 -3 -3 -1
22 20 16 14 12 7 9 8 7 9 9 7 7 7 7 7 7 7 5 5 7 7 6 6 13 14 13 12 9 7 9 8 6 7 7 5 3 5 3 -0 -3 1 3 4 3 1 1 -4 -4 -2 1 0 0 2
17 16 14 12 11 12 12 10 8 6 6 5 3 2 3 1 -3 1 4 3 3 3 5 5 4 2 7 15 16 16 14 12 11 9 7 5 3 1 5 3 0 1 2 3 1 -3 -3 -1 -1 0 1 1 0 1
9 8 5 6 7 8 10 9 8 6 4 1 -2 -4 -9 -9 -9 -4 0 3 0 2 3 4 7 7 7 6 6 6 4 1 6 11 9 8 5 7 4 4 2 1 2 1 -1 0 0 -1 -2 -2 -1 -1 0 2

GFSWCAN_sfc_dewp_129.txt.gz
Dewpoint
45 45 44 44 44 44 43 42 43 42 41 41 42 44 44 43 43 40 39 39 35 32 30 35 35 32 30 28 26 28 27 28 28 25 23 25 24 25 25 28 25 22 20 20 20 19 16 27 25 22 28 32 30 30
45 45 44 45 44 43 42 42 43 42 42 41 43 44 43 43 43 40 37 39 39 34 32 36 36 35 34 31 32 30 26 28 30 27 27 26 26 27 24 23 28 25 26 22 23 24 30 30 29 30 30 28 28 27
44 44 44 44 44 43 43 43 43 43 43 41 43 43 43 43 43 39 38 37 36 33 31 33 31 35 36 36 34 30 30 33 32 32 30 29 25 27 23 23 27 28 30 27 26 29 28 28 29 28 29 27 27 27
45 43 43 43 43 42 42 42 43 43 43 43 43 43 43 42 41 39 37 37 35 33 31 29 32 32 37 36 35 35 35 35 34 32 29 28 24 28 25 25 27 28 28 27 27 29 28 28 28 28 29 28 27 25
44 44 43 43 43 43 42 43 42 43 43 43 43 42 43 42 41 39 39 39 37 33 29 28 32 33 35 36 35 35 34 32 30 30 30 27 28 29 28 29 27 28 28 26 24 30 28 28 30 29 29 27 26 24
43 44 42 43 43 43 43 42 41 42 42 43 42 42 41 37 34 34 31 37 40 37 31 26 30 32 36 37 35 34 35 34 32 30 30 29 28 28 26 24 28 30 31 32 29 31 30 29 28 29 29 26 24 23
43 43 42 43 43 43 42 42 41 42 42 42 42 40 39 40 38 32 31 36 42 38 30 26 29 31 36 35 34 36 37 34 34 32 29 28 27 32 28 24 29 31 31 32 32 30 28 28 25 27 26 25 23 21
44 43 43 43 43 42 42 41 41 42 41 41 39 39 39 39 36 36 40 42 40 35 30 26 27 33 35 32 32 32 35 35 33 31 30 28 29 29 24 26 30 29 28 28 27 27 26 25 24 24 23 21 18 17
43 43 43 43 43 42 42 42 42 41 42 39 37 35 33 32 31 37 41 40 39 32 26 26 26 26 34 32 32 32 31 29 29 28 28 28 26 25 26 28 29 28 28 25 24 22 21 20 19 18 17 17 15 15
43 43 43 42 42 42 42 42 42 42 40 35 31 28 24 32 36 40 35 31 31 33 32 26 27 30 32 30 29 29 31 27 24 26 30 27 27 24 25 26 25 28 27 26 23 20 19 17 17 16 15 14 13 13
43 43 42 42 41 40 42 42 41 38 34 31 27 28 33 37 33 29 25 25 28 25 28 27 27 30 32 28 27 29 28 28 21 26 27 25 24 24 24 22 22 22 24 24 22 22 20 18 16 15 14 13 12 12
43 43 43 42 41 41 41 41 37 32 30 30 34 36 34 29 25 21 22 25 25 23 27 26 27 30 33 31 29 30 25 28 21 30 27 22 24 22 21 19 19 19 19 19 19 18 17 16 15 14 12 12 11 11
41 41 42 42 40 41 41 37 35 37 35 32 28 24 22 23 15 14 15 21 22 25 27 28 27 31 32 31 30 29 23 23 28 25 21 24 21 21 19 16 15 16 17 16 16 15 14 14 14 13 10 9 9 6
39 41 41 41 41 40 38 39 37 33 29 23 20 18 15 16 17 19 22 24 26 27 27 27 28 29 28 26 26 22 24 25 21 18 20 23 21 20 17 16 14 15 15 14 12 10 9 8 5 5 5 3 6 7
40 40 41 41 41 39 40 37 34 31 26 21 19 11 19 19 22 27 26 27 28 30 29 29 28 28 26 23 25 22 20 18 19 19 23 20 21 19 18 16 15 13 10 9 9 8 6 6 8 5 3 5 6 3
37 38 38 41 39 39 37 35 32 30 26 23 22 19 19 21 20 22 26 28 31 32 30 32 25 22 24 23 23 20 18 16 21 23 21 19 19 18 17 16 14 12 10 9 9 8 8 7 8 9 5 6 3 6
35 34 39 40 39 37 37 33 28 26 23 21 15 23 25 24 21 23 27 31 33 31 30 30 21 21 25 23 20 23 20 23 23 19 18 20 19 17 15 13 10 10 10 10 9 9 8 8 8 9 9 8 8 8
32 38 39 39 37 36 35 31 26 24 19 18 15 15 24 19 24 27 28 31 31 32 31 28 26 22 19 19 19 23 21 17 17 17 18 17 17 16 15 13 11 11 10 10 10 9 7 8 9 9 10 10 10 10
36 37 39 38 37 34 29 30 27 18 16 18 17 21 26 24 28 26 26 28 31 32 31 26 22 22 22 23 24 21 17 19 19 15 14 10 15 14 12 11 10 11 10 10 10 10 10 11 12 11 11 11 12 12
37 37 37 37 36 29 27 26 29 23 20 21 22 23 24 23 26 27 27 27 29 30 28 25 23 25 25 26 24 24 20 17 15 14 13 12 12 12 12 12 12 12 11 10 11 10 11 11 12 13 14 14 14 14
33 35 36 35 32 31 27 26 25 25 23 21 23 24 21 23 24 23 22 27 26 26 24 26 24 21 16 17 18 19 18 18 19 19 17 14 11 14 12 13 12 13 12 12 12 12 12 15 15 15 17 17 16 16
33 34 32 32 27 28 27 28 25 25 23 24 24 25 20 16 19 22 24 23 22 22 22 23 22 23 22 19 18 19 18 19 18 15 14 14 12 12 12 13 13 13 13 13 13 14 14 15 16 16 16 14 8 11
32 30 29 28 19 20 23 30 21 24 18 19 24 20 18 18 21 25 22 22 20 18 18 18 18 17 17 15 17 17 17 18 17 16 15 17 16 16 15 14 15 14 13 12 14 15 15 13 13 15 13 9 10 10
30 22 15 18 19 11 24 21 26 24 22 21 19 17 17 20 22 19 17 16 17 21 22 21 20 19 19 19 17 17 17 17 16 15 16 15 14 14 14 14 15 15 14 14 15 16 15 14 13 12 10 10 8 9
13 11 18 16 22 20 19 13 17 21 16 18 19 17 19 20 16 14 13 16 19 22 21 22 23 22 20 17 16 16 17 17 16 15 15 16 15 15 14 14 15 15 17 16 15 14 14 12 12 12 10 10 10 7
12 10 18 13 10 17 16 13 17 16 14 14 17 14 16 16 15 13 14 15 16 18 18 19 18 21 21 20 18 17 17 18 17 16 16 16 16 16 15 14 14 15 17 18 17 15 15 12 11 11 11 9 7 10
10 10 22 26 27 27 22 23 23 19 15 13 13 11 13 9 8 12 15 14 13 15 16 19 19 19 23 22 20 19 19 19 17 16 17 18 17 17 17 16 14 17 18 17 17 16 15 12 11 11 12 12 11 9
19 19 16 19 22 24 22 21 19 18 19 18 16 15 12 11 10 8 11 12 11 12 15 19 19 18 20 20 19 17 15 14 15 16 17 16 13 15 15 17 17 17 18 19 19 17 17 15 14 12 12 12 11 9
19 21 19 13 16 18 17 17 17 17 17 20 19 12 8 6 6 5 7 8 10 10 12 12 15 16 16 15 16 16 17 18 17 15 14 15 15 17 14 15 16 17 16 16 13 15 15 15 14 12 11 12 12 10
14 19 12 8 10 12 10 13 12 12 16 17 15 13 8 7 7 8 6 5 5 6 6 9 13 13 12 13 14 15 15 17 17 19 17 16 17 17 13 14 14 13 12 14 14 14 14 12 11 8 8 7 8 7
21 19 16 12 9 10 11 12 11 12 12 11 11 10 6 5 6 6 4 4 6 6 5 5 5 6 5 8 13 15 16 16 16 16 16 16 15 13 11 10 10 10 11 12 12 12 10 10 11 10 8 7 6 7
16 16 14 10 10 11 10 10 10 10 8 9 6 6 5 4 -1 1 3 3 2 1 2 3 3 5 7 8 11 11 11 12 13 12 13 14 12 10 9 8 9 10 10 10 11 10 10 10 9 8 7 7 7 7
12 12 10 11 11 11 11 12 11 9 8 7 3 2 -2 0 -4 -0 2 2 1 -0 0 1 3 6 8 7 7 8 7 8 7 9 6 5 3 7 8 9 9 10 9 9 9 8 7 7 7 6 7 6 5 5

GFSWCAN_sfc_dewp_132.txt.gz
Dewpoint
45 45 45 44 44 43 43 43 43 42 41 41 44 44 44 43 42 40 41 41 39 38 34 35 33 30 29 26 26 30 27 29 30 28 25 26 25 25 23 26 25 24 23 25 22 20 20 27 24 25 29 29 28 27
44 45 45 44 44 43 43 43 43 43 41 43 45 44 43 43 41 39 38 40 42 38 35 37 37 37 33 31 30 31 28 29 29 30 31 27 27 28 22 22 29 26 27 26 25 27 29 29 29 30 28 26 27 26
43 45 44 44 44 43 43 43 43 43 42 44 44 43 43 43 41 40 40 40 39 39 33 31 32 37 36 37 36 28 32 33 33 36 32 32 26 30 25 24 27 28 28 27 27 28 27 28 28 28 26 27 26 25
43 44 44 44 44 43 43 43 42 43 43 44 44 44 43 42 40 41 40 39 38 35 34 31 33 35 36 37 38 37 36 37 35 33 30 30 26 29 25 25 26 28 29 31 29 30 29 28 28 27 27 26 25 23
44 45 44 44 43 42 43 42 42 43 43 44 43 43 42 42 42 41 42 41 39 34 32 30 33 35 36 37 35 35 34 32 29 32 33 29 27 28 28 28 28 28 31 28 30 33 31 30 30 29 27 25 24 23
44 44 43 43 42 42 43 41 42 43 44 43 43 41 39 36 34 34 39 40 40 40 34 29 33 34 36 36 35 35 34 34 32 30 33 32 30 30 28 24 29 30 31 30 32 34 31 31 29 28 29 26 23 22
43 43 43 42 43 42 42 41 41 43 43 43 40 41 41 42 40 36 34 40 41 41 35 30 31 35 36 35 37 37 36 34 32 30 29 27 27 32 31 25 29 31 31 31 31 31 29 29 27 28 26 25 23 21
43 43 43 43 43 43 41 41 41 40 42 41 43 41 39 40 39 36 39 41 41 36 34 31 31 35 36 33 31 35 33 33 32 31 29 29 30 31 27 26 28 30 30 31 30 29 29 28 26 25 24 22 20 19
43 43 43 43 43 42 41 41 41 42 41 40 36 35 35 35 36 36 40 40 41 37 32 34 28 30 36 34 35 34 33 29 31 30 27 30 28 28 29 28 29 29 28 28 26 25 25 25 23 22 21 19 17 16
42 43 43 42 42 42 41 41 41 40 37 34 32 33 33 36 38 40 37 37 36 34 33 31 30 31 32 35 33 31 32 29 27 28 31 28 29 29 29 29 30 29 27 26 25 23 21 20 19 18 16 15 14 14
43 43 42 42 40 41 41 40 40 36 34 34 34 33 35 38 35 34 32 30 30 27 30 29 29 31 35 31 31 33 28 27 23 28 27 26 26 29 28 29 29 29 27 27 26 25 23 22 19 17 15 14 13 13
44 43 42 42 42 42 42 40 37 33 31 34 37 38 36 30 29 27 26 27 25 22 28 30 31 32 35 38 32 31 25 28 22 31 28 25 29 26 26 24 24 26 27 25 25 23 22 19 18 16 14 13 13 14
43 42 42 41 42 42 40 37 35 38 37 35 32 31 30 27 20 18 18 22 24 28 28 31 32 34 35 34 32 31 25 26 30 26 23 28 27 24 24 22 21 22 22 21 20 20 19 19 18 17 16 16 15 14
42 41 40 41 41 40 37 39 38 33 32 30 25 20 22 19 21 23 24 26 30 31 30 33 32 33 34 31 31 26 29 27 23 22 23 31 28 25 23 21 20 20 21 21 20 19 17 15 14 14 14 14 13 12
42 41 41 41 39 40 39 36 34 36 31 27 23 20 23 27 29 30 31 31 32 33 32 33 33 32 32 30 30 27 25 22 22 23 31 32 28 24 23 21 21 20 18 18 17 15 14 13 13 13 12 15 14 11
41 41 38 39 40 38 36 35 36 34 28 26 24 24 27 28 29 31 31 31 35 34 36 36 31 31 29 28 24 23 20 20 28 32 33 27 26 25 23 22 21 19 18 17 16 15 14 14 14 14 14 14 13 13
38 35 40 40 38 37 36 36 32 27 24 21 26 29 29 30 29 31 32 32 35 35 32 32 27 24 28 24 22 23 26 32 34 32 29 28 26 25 23 21 18 17 17 17 16 15 15 16 15 13 13 14 14 14
34 39 40 37 36 37 35 33 27 21 20 26 27 28 29 32 32 32 33 34 34 32 33 29 28 25 25 21 24 31 33 32 29 30 30 27 27 25 23 21 18 17 17 16 15 15 15 14 14 14 15 14 14 13
36 38 38 37 36 34 30 30 27 19 25 27 27 28 29 32 33 32 33 33 34 34 33 31 29 26 27 30 35 37 35 32 32 27 26 24 25 23 22 20 18 18 17 16 16 15 15 15 15 14 14 13 14 15
39 38 37 36 35 30 25 27 31 22 22 27 29 27 29 31 32 31 32 30 30 32 30 29 31 35 36 37 36 37 35 31 27 25 25 23 23 21 21 19 18 19 17 17 17 16 15 14 14 14 14 14 16 16
35 36 36 35 32 30 27 26 24 25 23 25 26 25 28 29 30 31 29 28 29 28 29 34 35 34 29 28 28 28 29 27 29 29 29 24 23 22 21 21 20 18 16 17 17 16 16 16 15 15 20 21 21 21
34 33 34 33 28 27 27 29 25 26 25 26 26 25 27 28 29 29 27 27 26 29 28 27 28 27 27 29 28 27 27 26 24 22 22 22 22 22 21 21 19 19 19 20 18 19 17 16 18 19 21 23 21 20
32 31 30 27 24 24 25 30 24 23 22 23 24 22 24 26 26 26 25 24 26 26 25 23 25 24 24 25 22 23 23 23 24 25 23 24 24 24 23 21 21 21 19 18 17 19 20 18 19 22 22 22 21 20
31 28 24 23 23 22 25 24 25 24 24 23 22 18 20 24 25 24 22 24 24 25 22 24 24 23 24 23 24 24 24 23 23 23 23 22 21 21 20 20 19 20 19 18 18 19 20 22 20 20 21 20 20 20
17 18 23 19 22 22 22 23 23 22 20 21 20 21 23 24 22 21 20 21 22 22 22 21 21 22 22 23 25 24 21 21 21 21 22 21 21 20 19 18 18 18 19 22 21 21 22 22 22 21 20 20 19 19
16 19 19 20 22 21 21 20 21 21 21 21 21 21 24 23 19 18 17 20 21 20 20 19 20 20 20 23 23 23 23 22 21 20 20 19 20 23 22 20 19 19 19 22 23 21 21 20 20 20 20 19 18 19
17 20 24 23 27 27 25 25 25 24 21 20 22 20 21 17 17 16 18 15 14 17 16 18 19 19 20 22 24 24 23 22 22 20 20 20 20 19 22 23 20 21 21 22 23 22 22 21 20 20 20 22 22 19
23 24 22 25 25 26 24 24 23 23 24 22 22 19 17 16 14 12 13 13 13 14 16 19 20 20 20 20 23 24 23 22 22 22 22 21 21 23 22 23 23 20 23 23 24 23 23 23 22 22 22 22 21 22
24 25 24 20 22 23 24 23 24 21 20 23 24 18 12 9 9 9 10 11 13 14 14 15 18 22 22 22 22 22 24 25 22 18 19 22 23 24 23 24 25 24 25 24 21 22 23 23 23 23 23 23 23 21
21 24 22 19 19 21 22 20 21 20 19 19 16 12 9 9 9 10 10 10 10 11 13 14 15 15 16 20 21 21 22 23 23 23 23 22 23 23 23 24 25 25 26 25 24 22 19 20 18 18 18 18 18 17
23 23 21 20 19 20 20 20 20 20 20 18 18 16 10 8 9 9 7 9 10 11 10 10 12 13 12 12 14 18 19 21 20 21 21 23 23 23 21 21 23 24 23 23 22 21 20 19 19 18 17 16 15 15
22 20 19 16 17 17 18 19 20 19 18 17 14 13 11 10 5 6 6 7 7 6 6 7 8 9 11 13 14 16 13 16 16 17 17 19 20 18 18 18 19 20 20 19 20 18 18 18 18 16 15 13 12 12
17 18 17 16 15 15 17 18 15 13 14 12 9 9 6 7 -0 4 7 7 6 5 5 6 7 9 11 11 11 13 13 14 12 11 10 10 9 13 18 18 18 18 17 17 17 16 14 13 12 12 12 11 11 10